2020-003D (45019 NORAD) Tracking and Keplerian Element Data

This shows tracking and keplerian element data for the satellite.

Feedback or suggestion? Click here.




ElementValue
Catalog45019
Name2020-003D
Epoch Orbit1206
Epoch Day94.17041969
Epoch Year2020
RAAN161.7168
Inclination97.3236
Eccentricity0.0013412
Argument of Perigee3.3303
Mean Anonmoly356.8023
Mean Motion15.27495451
Decay Rate9.64E-06
L11 45019U 20003D 20094.17041969 .00000964 00000-0 38487-4 0 9999
L22 45019 97.3236 161.7168 0013412 3.3303 356.8023 15.27495451 12063

Live tracking and technical data element details for 2020-003D (NORAD 45019). 2020-003D can be tracked NOW for your location showing map with azimuth and elevation plus other details from your city location.

Track the satellite on the map from your city or location and see movement details for azimuth, elevation, latitude, longitude, range, height, and movement on the map or in text.







IsCatalogInMostPopularTable: catalog: 45019, numindb: 19
Update: records affected: 1



GetName: 45019 2020-003D

Hit Count: updated at: Fri, 10 Apr 2020 18:18:13 GMT